COSMOS 249 DEB, 3584

Orbit data source: Space-Track

COSMOS 249 DEB, 3584 is space debris in LEO originally from a launch on Sun, 20 Oct 1968 UTC launched from the Tyuratam Missile And Space Complex (TTMTR). Debris objects in space refer to the collection of defunct objects orbiting the Earth. Examples of debris include non-operational satellites, rocket bodies, and fragments generated from explosions, collisions, or faulty payload assembly.

Loading next visibility...
Identifier
3584, 1968-091S
Orbit
LEO
Country
Flag of CISCIS
Related business
Manufacturer
Unknown
Mission
Spacecraft
Bus & Motor
Unknown
Mass
Unknown
Launch date (UTC)
1968-10-20 (57 years ago)
Launch vehicle
Unknown
Launch site
Tyuratam Missile And Space Complex (TTMTR)
Object type
Payload
Rocket body
Debris
Shape & HBR
Unknown shape, 0.1 m
Radar Cross Section
Small (<0.1 m²)

Expand to show TLE details & history
Last TLE update: 8 hours ago

TLE from 8 hours ago
0 COSMOS 249 DEB
1  3584U 68091S   25295.96571110  .00023764  00000-0  25096-2 0  9993
2  3584  62.2956  23.2938 0318354 151.2061 210.7008 14.58542741828219
Epoch: 2025-10-22T23:10Z
TLE epoch observation values (Epoch: 2025-10-22T23:10:37.439Z)
Latitude
0.00002°
Longitude
4.00607°
Altitude
895.158 km
Speed
7.302 km/s
True Right ascension
01h 33m 10s
True Declination
0° 00' 00"
Sunlit
Object was in full shadow at epoch
Visualization orbit readout
Latitude
Unknown
Longitude
Unknown
Altitude
Unknown
Speed
Unknown
Apparent Right ascension
Unknown
Apparent Declination
Unknown
Sunlit
N/A
Visualization observer readout
Local Sidereal Time
02:32:27
Azimuth
Unknown
Elevation
Unknown
Doppler factor
Unknown
Orbital elements
Apogee altitude
922.025 km
Perigee altitude
471.559 km
Semi-major axis
7,074.929 km
Eccentricity
0.03184
Inclination
62.2956°
RAAN
23.2938°
Arg. of periapsis
151.2061°
True anomaly
208.90026°
Mean anomaly
210.7008°
Eccentric anomaly
209.79446°
Mean motion
3.6472 °/min
Orbital period
98.71 mins
BSTAR
0.0025096
Loading maneuver chart data...
Computing Atmospheric mass density...

Documentation

Showing up to 5 results
|